DAL6631 KCLT-KBOS

Flight info

Callsign DAL6631
Flight time N/A
Altitude 27000
Route KFK ROBUC3
Aircraft A359/H-SDE2E3GHIJ3J4J5LM1ORWXY/LB1D1

Departure

Time N/A
Airport Charlotte Douglas International Airport (KCLT)

Arrival

Time 2026-05-04 23:34
Airport Boston Logan International Airport (KBOS)
Time Latitude Longitude Altitude Speed Heading
2026-05-04 22:48 40.19260 -74.51019 40874 ft 510 kts 42°
2026-05-04 22:48 40.21825 -74.47893 40486 ft 502 kts 37°
2026-05-04 22:48 40.24472 -74.44928 39913 ft 499 kts 36°
2026-05-04 22:49 40.27140 -74.42045 39367 ft 497 kts 35°
2026-05-04 22:49 40.29821 -74.39194 38866 ft 494 kts 35°
2026-05-04 22:49 40.32141 -74.36739 38346 ft 493 kts 35°
2026-05-04 22:49 40.34801 -74.33924 37661 ft 490 kts 35°
2026-05-04 22:50 40.37446 -74.31114 37001 ft 488 kts 35°
2026-05-04 22:50 40.40073 -74.28307 36358 ft 485 kts 35°
2026-05-04 22:50 40.42675 -74.25515 35750 ft 482 kts 35°
2026-05-04 22:50 40.45257 -74.22738 35141 ft 479 kts 35°
2026-05-04 22:51 40.47817 -74.19979 34462 ft 471 kts 35°
2026-05-04 22:51 40.50292 -74.17304 33486 ft 464 kts 35°
2026-05-04 22:51 40.52613 -74.14332 31964 ft 472 kts 46°
2026-05-04 22:51 40.54357 -74.10607 30228 ft 488 kts 61°
2026-05-04 22:52 40.55600 -74.06405 28503 ft 496 kts 67°
2026-05-04 22:52 40.56728 -74.02115 27492 ft 495 kts 68°
2026-05-04 22:52 40.57824 -73.97842 27027 ft 492 kts 70°
2026-05-04 22:52 40.58708 -73.93496 26905 ft 490 kts 71°
2026-05-04 22:53 40.59696 -73.89201 26921 ft 489 kts 68°
2026-05-04 22:53 40.60784 -73.84972 26924 ft 487 kts 68°
2026-05-04 22:53 40.61888 -73.80757 26924 ft 487 kts 67°
2026-05-04 22:53 40.63008 -73.76547 26916 ft 486 kts 65°
2026-05-04 22:54 40.64433 -73.72535 26926 ft 481 kts 56°
2026-05-04 22:54 40.66214 -73.68890 26926 ft 478 kts 51°
2026-05-04 22:54 40.68130 -73.65315 26924 ft 478 kts 50°
2026-05-04 22:54 40.70103 -73.61798 26923 ft 476 kts 48°
2026-05-04 22:55 40.72151 -73.58358 26931 ft 476 kts 47°
2026-05-04 22:55 40.74200 -73.54945 26933 ft 476 kts 47°
2026-05-04 22:55 40.76261 -73.51518 26934 ft 476 kts 47°
2026-05-04 22:55 40.78320 -73.48095 26918 ft 476 kts 47°
2026-05-04 22:56 40.80375 -73.44679 26920 ft 476 kts 47°
2026-05-04 22:56 40.82430 -73.41260 26908 ft 476 kts 47°
2026-05-04 22:56 40.84493 -73.37831 26910 ft 476 kts 47°
2026-05-04 22:56 40.86557 -73.34401 26917 ft 476 kts 47°
2026-05-04 22:57 40.88624 -73.30967 26913 ft 476 kts 47°
2026-05-04 22:57 40.90705 -73.27570 26905 ft 474 kts 44°
2026-05-04 22:57 40.93009 -73.24474 26904 ft 470 kts 38°
2026-05-04 22:57 40.95433 -73.21573 26899 ft 469 kts 37°
2026-05-04 22:58 40.97846 -73.18754 26899 ft 469 kts 36°
2026-05-04 22:58 41.00303 -73.15898 26893 ft 470 kts 36°
2026-05-04 22:58 41.02758 -73.13047 26892 ft 470 kts 36°
2026-05-04 22:58 41.05214 -73.10193 26913 ft 470 kts 36°
2026-05-04 22:59 41.07670 -73.07338 26872 ft 468 kts 36°
2026-05-04 22:59 41.10060 -73.04548 26263 ft 449 kts 36°
2026-05-04 22:59 41.12388 -73.01832 25002 ft 446 kts 37°
2026-05-04 22:59 41.14733 -72.99105 23951 ft 452 kts 37°
2026-05-04 23:00 41.17108 -72.96340 23269 ft 455 kts 37°
2026-05-04 23:00 41.19461 -72.93515 22942 ft 455 kts 40°
2026-05-04 23:00 41.21495 -72.90271 22898 ft 460 kts 52°
2026-05-04 23:00 41.23095 -72.86575 22895 ft 463 kts 58°
2026-05-04 23:01 41.24563 -72.82760 22895 ft 463 kts 59°
2026-05-04 23:01 41.26012 -72.78936 22895 ft 463 kts 59°
2026-05-04 23:01 41.27462 -72.75111 22895 ft 463 kts 59°
2026-05-04 23:01 41.28914 -72.71288 22898 ft 463 kts 59°
2026-05-04 23:02 41.30366 -72.67470 22921 ft 463 kts 59°
2026-05-04 23:02 41.31821 -72.63642 22824 ft 458 kts 59°
2026-05-04 23:02 41.33222 -72.59942 22105 ft 442 kts 59°
2026-05-04 23:02 41.34614 -72.56278 21362 ft 448 kts 59°
2026-05-04 23:03 41.36012 -72.52600 20991 ft 454 kts 60°
2026-05-04 23:03 41.37434 -72.48846 20908 ft 454 kts 60°
2026-05-04 23:03 41.38871 -72.45046 20903 ft 453 kts 60°
2026-05-04 23:03 41.40267 -72.41350 20903 ft 453 kts 60°
2026-05-04 23:04 41.41682 -72.37599 20902 ft 452 kts 60°
2026-05-04 23:04 41.43092 -72.33855 20901 ft 452 kts 60°
2026-05-04 23:04 41.44502 -72.30107 20900 ft 452 kts 60°
2026-05-04 23:04 41.45912 -72.26358 20884 ft 452 kts 60°
2026-05-04 23:05 41.47285 -72.22691 20352 ft 432 kts 60°
2026-05-04 23:05 41.48619 -72.19129 19150 ft 430 kts 60°
2026-05-04 23:05 41.49946 -72.15528 17999 ft 434 kts 61°
2026-05-04 23:05 41.51257 -72.11935 17261 ft 437 kts 62°
2026-05-04 23:06 41.52598 -72.08255 16946 ft 434 kts 62°
2026-05-04 23:06 41.53900 -72.04680 16893 ft 433 kts 62°
2026-05-04 23:06 41.55213 -72.01074 16897 ft 432 kts 62°
2026-05-04 23:06 41.56494 -71.97444 16901 ft 432 kts 65°
2026-05-04 23:07 41.57605 -71.93733 16733 ft 426 kts 67°
2026-05-04 23:07 41.58653 -71.90095 16175 ft 419 kts 67°
2026-05-04 23:07 41.59719 -71.86426 15938 ft 425 kts 67°
2026-05-04 23:07 41.60799 -71.82738 15900 ft 426 kts 67°
2026-05-04 23:08 41.61875 -71.79052 15898 ft 426 kts 67°
2026-05-04 23:08 41.62950 -71.75381 15704 ft 420 kts 67°
2026-05-04 23:08 41.64002 -71.71794 14989 ft 408 kts 67°
2026-05-04 23:08 41.65013 -71.68346 14557 ft 388 kts 67°
2026-05-04 23:09 41.65971 -71.65078 14183 ft 368 kts 67°
2026-05-04 23:09 41.66884 -71.61966 13778 ft 352 kts 67°
2026-05-04 23:09 41.67765 -71.58962 13194 ft 342 kts 67°
2026-05-04 23:09 41.68632 -71.56016 12932 ft 339 kts 67°
2026-05-04 23:10 41.69491 -71.53075 13002 ft 340 kts 66°
2026-05-04 23:10 41.70348 -71.50139 13015 ft 335 kts 66°
2026-05-04 23:10 41.71182 -71.47274 12396 ft 328 kts 67°
2026-05-04 23:10 41.72023 -71.44452 11758 ft 332 kts 65°
2026-05-04 23:11 41.73020 -71.41703 11385 ft 327 kts 59°
2026-05-04 23:11 41.74123 -71.39066 11120 ft 323 kts 57°
2026-05-04 23:11 41.75248 -71.36447 11060 ft 324 kts 57°
2026-05-04 23:11 41.76370 -71.33833 11062 ft 324 kts 57°
2026-05-04 23:12 41.77492 -71.31219 11074 ft 324 kts 58°
2026-05-04 23:12 41.78610 -71.28604 11072 ft 323 kts 57°
2026-05-04 23:12 41.79728 -71.25991 11071 ft 323 kts 58°
2026-05-04 23:12 41.80842 -71.23370 11057 ft 323 kts 57°
2026-05-04 23:13 41.81957 -71.20749 11070 ft 324 kts 58°
2026-05-04 23:13 41.83067 -71.18134 10805 ft 320 kts 57°
2026-05-04 23:13 41.83792 -71.16425 10619 ft 316 kts 57°
2026-05-04 23:13 41.85222 -71.13048 10272 ft 307 kts 57°
2026-05-04 23:14 41.85923 -71.11402 10027 ft 306 kts 57°
2026-05-04 23:14 41.86987 -71.08946 9675 ft 303 kts 56°
2026-05-04 23:14 41.88386 -71.05722 9109 ft 301 kts 56°
2026-05-04 23:14 41.89439 -71.03291 8628 ft 301 kts 57°
2026-05-04 23:15 41.90488 -71.00865 8231 ft 300 kts 57°
2026-05-04 23:15 41.91195 -70.99227 8094 ft 300 kts 57°
2026-05-04 23:15 41.92228 -70.96831 7998 ft 300 kts 57°
2026-05-04 23:15 41.93274 -70.94402 7601 ft 300 kts 57°
2026-05-04 23:16 41.94315 -70.91982 7225 ft 298 kts 57°
2026-05-04 23:16 41.95349 -70.89578 7082 ft 298 kts 57°
2026-05-04 23:16 41.96387 -70.87162 7053 ft 298 kts 58°
2026-05-04 23:16 41.97423 -70.84748 7057 ft 298 kts 57°
2026-05-04 23:17 41.98456 -70.82338 7057 ft 297 kts 57°
2026-05-04 23:17 41.99482 -70.79940 6938 ft 295 kts 58°
2026-05-04 23:17 42.00519 -70.77564 6522 ft 294 kts 55°
2026-05-04 23:17 42.01707 -70.75343 6138 ft 290 kts 47°
2026-05-04 23:18 42.03002 -70.73339 6034 ft 277 kts 45°
2026-05-04 23:18 42.04254 -70.71464 6031 ft 263 kts 44°
2026-05-04 23:18 42.05473 -70.69650 6039 ft 260 kts 44°
2026-05-04 23:18 42.06685 -70.67844 6041 ft 260 kts 44°
2026-05-04 23:19 42.07899 -70.66036 6043 ft 260 kts 44°
2026-05-04 23:19 42.09173 -70.64307 5842 ft 259 kts 38°
2026-05-04 23:19 42.10587 -70.62832 5518 ft 255 kts 29°
2026-05-04 23:19 42.12139 -70.61664 5160 ft 263 kts 20°
2026-05-04 23:20 42.13910 -70.60790 5047 ft 276 kts 11°
2026-05-04 23:20 42.15783 -70.60191 5039 ft 277 kts
2026-05-04 23:20 42.17648 -70.59680 5047 ft 276 kts
2026-05-04 23:20 42.19532 -70.59170 5033 ft 276 kts
2026-05-04 23:21 42.21412 -70.58657 5033 ft 276 kts
2026-05-04 23:21 42.23296 -70.58138 5031 ft 276 kts
2026-05-04 23:21 42.25182 -70.57615 5025 ft 276 kts
2026-05-04 23:21 42.27069 -70.57090 5023 ft 277 kts
2026-05-04 23:22 42.28959 -70.56563 5025 ft 277 kts
2026-05-04 23:22 42.30849 -70.56061 5021 ft 276 kts
2026-05-04 23:22 42.32706 -70.56241 5015 ft 263 kts 335°
2026-05-04 23:22 42.34197 -70.57543 5019 ft 253 kts 314°
2026-05-04 23:23 42.35468 -70.59174 5015 ft 252 kts 311°
2026-05-04 23:23 42.36710 -70.60852 5006 ft 253 kts 310°
2026-05-04 23:23 42.37962 -70.62537 5001 ft 254 kts 310°
2026-05-04 23:23 42.39208 -70.64198 5001 ft 254 kts 311°
2026-05-04 23:24 42.40488 -70.65894 5001 ft 254 kts 311°
2026-05-04 23:24 42.41754 -70.67565 4989 ft 254 kts 311°
2026-05-04 23:24 42.43016 -70.69231 4988 ft 254 kts 311°
2026-05-04 23:24 42.44264 -70.70878 4966 ft 254 kts 311°
2026-05-04 23:25 42.45517 -70.72528 4927 ft 247 kts 311°
2026-05-04 23:25 42.46715 -70.74099 4914 ft 231 kts 310°
2026-05-04 23:25 42.47830 -70.75563 4888 ft 216 kts 310°
2026-05-04 23:25 42.48887 -70.76958 4875 ft 211 kts 310°
2026-05-04 23:26 42.49937 -70.78351 4708 ft 211 kts 310°
2026-05-04 23:26 42.50989 -70.79744 4192 ft 211 kts 310°
2026-05-04 23:26 42.52178 -70.80946 3651 ft 218 kts 326°
2026-05-04 23:26 42.53685 -70.81404 3165 ft 231 kts 356°
2026-05-04 23:27 42.55290 -70.80924 3003 ft 241 kts 11°
2026-05-04 23:27 42.56890 -70.80494 2961 ft 224 kts 353°
2026-05-04 23:27 42.58285 -70.80960 2956 ft 197 kts 320°
2026-05-04 23:27 42.59162 -70.82275 2986 ft 185 kts 292°
2026-05-04 23:28 42.59697 -70.83842 2984 ft 182 kts 287°
2026-05-04 23:28 42.60160 -70.85425 2988 ft 180 kts 285°
2026-05-04 23:28 42.60243 -70.87071 2977 ft 176 kts 253°
2026-05-04 23:28 42.59701 -70.88549 2976 ft 174 kts 238°
2026-05-04 23:29 42.58781 -70.89611 2984 ft 178 kts 210°
2026-05-04 23:29 42.57656 -70.90333 2974 ft 180 kts 208°
2026-05-04 23:29 42.56543 -70.90930 2961 ft 167 kts 205°
2026-05-04 23:29 42.55459 -70.91375 2978 ft 160 kts 201°
2026-05-04 23:30 42.54402 -70.91831 2973 ft 159 kts 205°
2026-05-04 23:30 42.53359 -70.92349 2977 ft 160 kts 205°
2026-05-04 23:30 42.52312 -70.92868 2976 ft 160 kts 204°
2026-05-04 23:30 42.51264 -70.93363 2868 ft 159 kts 205°
2026-05-04 23:31 42.50218 -70.93850 2662 ft 159 kts 205°
2026-05-04 23:31 42.49179 -70.94356 2446 ft 158 kts 205°
2026-05-04 23:31 42.48157 -70.94855 2225 ft 155 kts 205°
2026-05-04 23:31 42.47139 -70.95348 2039 ft 156 kts 205°
2026-05-04 23:32 42.46115 -70.95846 1824 ft 156 kts 204°
2026-05-04 23:32 42.45098 -70.96339 1618 ft 155 kts 204°
2026-05-04 23:32 42.44092 -70.96825 1408 ft 152 kts 204°
2026-05-04 23:32 42.43094 -70.97311 1193 ft 152 kts 204°
2026-05-04 23:33 42.42083 -70.97803 990 ft 156 kts 202°
2026-05-04 23:33 42.41078 -70.98289 795 ft 155 kts 200°
2026-05-04 23:33 42.40059 -70.98781 615 ft 156 kts 202°
2026-05-04 23:33 42.39053 -70.99281 424 ft 151 kts 202°
2026-05-04 23:34 42.38071 -70.99751 202 ft 146 kts 200°
2026-05-04 23:34 42.37164 -71.00192 52 ft 133 kts 199°
2026-05-04 23:34 42.36354 -71.00574 34 ft 107 kts 200°
2026-05-04 23:34 42.35788 -71.00848 28 ft 47 kts 200°
2026-05-04 23:35 42.35634 -71.01027 30 ft 24 kts 272°
2026-05-04 23:35 42.35676 -71.01183 31 ft 7 kts 304°
2026-05-04 23:35 42.35677 -71.01184 31 ft 0 kts 304°
2026-05-04 23:35 42.35679 -71.01189 31 ft 0 kts 305°
2026-05-04 23:36 42.35696 -71.01217 31 ft 11 kts 309°
2026-05-04 23:36 42.35744 -71.01318 33 ft 7 kts 288°
2026-05-04 23:36 42.35744 -71.01319 33 ft 0 kts 284°
2026-05-04 23:37 42.35755 -71.01361 35 ft 16 kts 289°
2026-05-04 23:37 42.35801 -71.01532 37 ft 21 kts 291°
2026-05-04 23:37 42.35833 -71.01713 35 ft 20 kts 281°
2026-05-04 23:38 42.35876 -71.01901 33 ft 21 kts 298°
2026-05-04 23:38 42.35942 -71.02059 32 ft 16 kts 300°
2026-05-04 23:38 42.36005 -71.02199 31 ft 18 kts 301°
2026-05-04 23:38 42.36078 -71.02319 31 ft 17 kts 329°
2026-05-04 23:39 42.36191 -71.02351 31 ft 18 kts
2026-05-04 23:39 42.36284 -71.02340 31 ft 14 kts 15°
2026-05-04 23:39 42.36315 -71.02283 31 ft 0 kts 90°
2026-05-04 23:40 42.36312 -71.02258 30 ft 6 kts 102°
2026-05-04 23:40 42.36287 -71.02181 30 ft 10 kts 109°
2026-05-04 23:40 42.36283 -71.02106 31 ft 10 kts 98°
2026-05-04 23:40 42.36269 -71.01999 30 ft 11 kts 100°
2026-05-04 23:41 42.36267 -71.01988 30 ft 0 kts 100°